K9JWM Weather Reports


Display with metric or nautical units.
time (UTC)temp
F
wind
direction
speed
MPH
gust
MPH
rain 1hr
in
rain 24hr
in
rain mn
in
humidity
%
barometer
mb
20260901012011 70 272 0.0 1.0 0.00 0.00 0.00 76 1010.3
20260901011421 70 272 0.0 0.0 0.00 0.00 0.00 75 1010.2
20260901011011 71 272 0.0 2.0 0.00 0.00 0.00 74 1010.2
20260901010005 71 322 0.0 0.0 0.00 0.00 0.00 70 1010.1
20260901005926 71 322 0.0 0.0 0.00 0.00 0.00 70 1010.1
20260901005007 72 322 0.0 0.0 0.00 0.00 0.00 67 1010.1
20260901004422 73 322 0.0 0.0 0.00 0.00 0.00 66 1010.0
20260901004005 73 322 0.0 0.0 0.00 0.00 0.00 65 1010.0
20260901003005 74 322 0.0 0.0 0.00 0.00 0.00 61 1010.0
20260901002939 75 322 0.0 0.0 0.00 0.00 0.00 61 1009.9
20260901000004 78 322 0.0 0.0 0.00 0.00 0.00 54 1009.8
20260831235921 78 322 0.0 0.0 0.00 0.00 0.00 53 1009.8
20260831235004 79 322 0.0 2.0 0.00 0.00 0.00 52 1009.8
20260831234421 79 322 0.0 2.0 0.00 0.00 0.00 51 1009.8
20260831234005 80 322 0.0 2.0 0.00 0.00 0.00 52 1009.8
20260831232921 81 322 1.0 2.0 0.00 0.00 0.00 47 1009.9
20260831232007 81 289 0.0 3.0 0.00 0.00 0.00 49 1009.9
20260831231421 83 285 0.0 0.0 0.00 0.00 0.00 46 1009.8
20260831231006 83 260 2.0 5.0 0.00 0.00 0.00 47 1009.7
20260831230004 82 234 1.0 5.0 0.00 0.00 0.00 56 1009.6
20260831225921 82 260 1.0 3.0 0.00 0.00 0.00 56 1009.5
20260831225005 84 358 1.0 5.0 0.00 0.00 0.00 55 1009.5
20260831224421 83 288 1.0 5.0 0.00 0.00 0.00 53 1009.5
20260831224005 83 261 1.0 8.0 0.00 0.00 0.00 55 1009.5
20260831223005 83 256 3.0 6.0 0.00 0.00 0.00 57 1009.5
20260831222926 83 250 2.0 5.0 0.00 0.00 0.00 56 1009.5
20260831222008 83 259 5.0 9.0 0.00 0.00 0.00 59 1009.5
20260831221420 83 258 5.0 6.0 0.00 0.00 0.00 59 1009.4
20260831221012 83 246 2.0 10.0 0.00 0.00 0.00 58 1009.4
20260831220005 83 289 4.0 8.0 0.00 0.00 0.00 60 1009.4
20260831215920 83 314 5.0 7.0 0.00 0.00 0.00 60 1009.4
20260831215005 84 258 5.0 8.0 0.00 0.00 0.00 60 1009.4
20260831214421 83 257 3.0 6.0 0.00 0.00 0.00 59 1009.3
20260831213005 83 238 2.0 7.0 0.00 0.00 0.00 64 1009.2
20260831212920 82 234 2.0 5.0 0.00 0.00 0.00 64 1009.2
20260831212004 82 291 2.0 8.0 0.00 0.00 0.00 63 1009.1
20260831211420 81 270 2.0 5.0 0.00 0.00 0.00 71 1009.1
20260831211004 81 248 6.0 12.0 0.00 0.00 0.00 71 1009.1
20260831205921 81 253 3.0 6.0 0.00 0.00 0.00 70 1009.0
20260831205015 81 254 5.0 12.0 0.00 0.00 0.00 72 1009.1
20260831204005 80 228 6.0 10.0 0.00 0.00 0.00 71 1009.0
20260831203005 80 235 4.0 7.0 0.00 0.00 0.00 74 1008.9
20260831202920 80 236 5.0 5.0 0.00 0.00 0.00 74 1008.9
20260831202004 78 266 3.0 8.0 0.00 0.00 0.00 77 1009.1
20260831201420 78 226 6.0 7.0 0.00 0.00 0.00 77 1009.0
20260831201004 78 246 3.0 9.0 0.00 0.00 0.00 78 1008.9
20260831200004 77 247 4.0 7.0 0.00 0.00 0.00 79 1009.0
20260831195920 77 256 3.0 3.0 0.00 0.00 0.00 79 1009.0
20260831195005 78 239 9.0 13.0 0.00 0.00 0.00 79 1009.0
20260831194005 77 236 4.0 9.0 0.00 0.00 0.00 81 1008.9
20260831193005 76 237 5.0 8.0 0.00 0.00 0.00 82 1009.0
20260831192920 76 237 6.0 7.0 0.00 0.00 0.00 82 1009.0
20260831192012 76 240 5.0 9.0 0.00 0.00 0.00 83 1008.9
20260831190011 76 233 7.0 12.0 0.00 0.00 0.00 83 1009.2
20260831185921 76 235 7.0 8.0 0.00 0.00 0.00 83 1009.2
20260831185007 76 244 9.0 13.0 0.00 0.00 0.00 83 1009.2
20260831184005 76 240 10.0 12.0 0.00 0.00 0.00 84 1009.2
20260831183004 75 227 6.0 10.0 0.00 0.00 0.00 85 1009.1
20260831182921 75 237 7.0 6.0 0.00 0.00 0.00 85 1009.2
20260831182004 75 232 6.0 8.0 0.00 0.00 0.00 84 1008.9
20260831181005 74 243 3.0 5.0 0.00 0.00 0.00 87 1009.1
20260831180012 74 234 3.0 8.0 0.00 0.00 0.00 87 1009.1
20260831175930 74 235 2.0 5.0 0.00 0.00 0.00 87 1009.2
20260831175007 74 241 5.0 6.0 0.00 0.00 0.00 87 1009.2
20260831174420 74 246 3.0 6.0 0.00 0.00 0.00 87 1009.2
20260831173007 73 249 3.0 8.0 0.00 0.00 0.00 89 1009.4
20260831172920 73 252 3.0 3.0 0.00 0.00 0.00 88 1009.4
20260831172005 73 224 5.0 8.0 0.00 0.00 0.00 89 1009.4
20260831170005 73 234 5.0 7.0 0.00 0.00 0.00 89 1009.2
20260831165922 73 234 5.0 7.0 0.00 0.00 0.00 89 1009.2
20260831164421 73 230 5.0 5.0 0.00 0.00 0.00 89 1009.3
20260831164004 73 232 5.0 8.0 0.00 0.00 0.00 89 1009.2
20260831163006 73 223 5.0 6.0 0.00 0.00 0.00 89 1009.2
20260831162921 73 230 5.0 6.0 0.00 0.00 0.00 89 1009.1
20260831162004 73 227 4.0 5.0 0.00 0.00 0.00 89 1009.1
20260831161421 73 239 5.0 5.0 0.00 0.00 0.00 89 1008.8
20260831161004 73 250 3.0 7.0 0.00 0.00 0.00 89 1008.8
20260831155921 72 239 2.0 2.0 0.00 0.00 0.00 90 1008.6
20260831155004 72 248 3.0 6.0 0.00 0.00 0.00 90 1008.9
20260831154420 72 243 3.0 3.0 0.00 0.00 0.00 89 1008.7
20260831153004 72 247 3.0 6.0 0.00 0.00 0.00 89 1008.5
20260831152921 72 246 3.0 3.0 0.00 0.00 0.00 89 1008.4
20260831152004 72 242 5.0 7.0 0.00 0.00 0.00 89 1008.4
20260831150004 72 206 3.0 7.0 0.00 0.00 0.00 88 1008.2
20260831145920 72 223 5.0 7.0 0.00 0.00 0.00 88 1008.2
20260831145004 72 186 2.0 6.0 0.00 0.00 0.00 89 1008.1
20260831144004 71 233 2.0 6.0 0.00 0.00 0.00 88 1008.1
20260831143011 71 220 1.0 3.0 0.00 0.00 0.00 89 1008.2
20260831142923 71 221 1.0 2.0 0.00 0.00 0.00 89 1008.2
20260831142004 71 225 3.0 6.0 0.00 0.00 0.00 89 1008.3
20260831141004 71 223 4.0 6.0 0.00 0.00 0.00 89 1008.2
20260831140003 71 223 3.0 5.0 0.00 0.00 0.00 89 1008.1
20260831135924 71 211 2.0 5.0 0.00 0.00 0.00 89 1008.1
20260831135004 71 184 2.0 3.0 0.00 0.00 0.00 89 1007.9
20260831134004 71 174 0.0 5.0 0.00 0.00 0.00 89 1007.9
20260831132920 71 225 3.0 6.0 0.00 0.00 0.00 89 1008.0
20260831132004 70 214 2.0 5.0 0.00 0.00 0.00 90 1007.9
20260831131011 69 129 0.0 9.0 0.00 0.00 0.00 92 1007.7
20260831130007 69 135 2.0 5.0 0.00 0.00 0.00 92 1007.6
20260831125928 69 133 2.0 3.0 0.00 0.00 0.00 92 1007.6
20260831124004 69 145 0.0 3.0 0.00 0.01 0.00 93 1008.1
20260831123015 68 141 0.0 3.0 0.00 0.01 0.00 93 1008.1
20260831122920 68 143 0.0 1.0 0.00 0.01 0.00 93 1008.1
20260831121007 69 151 0.0 2.0 0.00 0.01 0.00 93 1008.0
20260831120004 68 145 0.0 3.0 0.00 0.01 0.00 93 1008.1
20260831115910 68 145 0.0 1.0 0.00 0.01 0.00 93 1008.0
20260831115004 68 147 0.0 2.0 0.00 0.01 0.00 94 1007.9
20260831114004 68 148 0.0 2.0 0.00 0.01 0.00 94 1007.6
20260831113011 68 146 0.0 3.0 0.00 0.01 0.00 94 1007.5
20260831112813 68 145 1.0 2.0 0.00 0.01 0.00 93 1007.5
20260831112004 68 120 1.0 3.0 0.00 0.01 0.00 93 1007.7
20260831111310 68 139 0.0 2.0 0.00 0.01 0.00 93 1007.7
20260831111004 68 121 0.0 7.0 0.00 0.01 0.00 93 1007.8
20260831110004 68 137 0.0 3.0 0.00 0.01 0.00 93 1007.7
20260831105809 68 138 0.0 2.0 0.00 0.01 0.00 93 1007.7
20260831104311 69 144 0.0 2.0 0.00 0.01 0.00 92 1007.8
20260831103004 69 136 0.0 6.0 0.00 0.01 0.00 91 1007.9
20260831102809 69 131 1.0 2.0 0.00 0.01 0.00 91 1007.9
20260831102004 70 114 1.0 3.0 0.00 0.01 0.00 91 1007.9
20260831101310 70 112 2.0 3.0 0.00 0.01 0.00 91 1007.9
20260831101004 70 153 0.0 3.0 0.00 0.01 0.00 91 1007.9
20260831100004 70 134 1.0 8.0 0.00 0.01 0.00 91 1008.0
20260831095810 69 139 0.0 2.0 0.00 0.01 0.00 91 1008.0
20260831095004 70 129 1.0 6.0 0.00 0.01 0.00 91 1008.1
20260831094309 70 117 0.0 2.0 0.00 0.01 0.00 91 1008.0
20260831093005 70 155 1.0 5.0 0.00 0.01 0.00 91 1008.1
20260831092810 70 135 1.0 3.0 0.00 0.01 0.00 91 1008.1
20260831092004 70 123 1.0 7.0 0.00 0.01 0.00 91 1008.4
20260831091310 70 147 0.0 2.0 0.00 0.01 0.00 92 1008.4
20260831090003 69 117 0.0 3.0 0.00 0.01 0.00 92 1008.2
20260831085809 69 116 0.0 0.0 0.00 0.01 0.00 93 1008.2
20260831085004 69 125 1.0 8.0 0.00 0.01 0.00 93 1008.2
20260831084314 69 124 1.0 2.0 0.00 0.01 0.00 93 1008.2
20260831084004 69 122 2.0 5.0 0.00 0.01 0.00 93 1008.3
20260831083007 69 86 1.0 5.0 0.00 0.01 0.00 93 1008.1
20260831082811 69 133 0.0 2.0 0.00 0.01 0.00 93 1008.1
20260831081309 69 115 1.0 3.0 0.00 0.01 0.00 93 1008.2
20260831081004 69 123 1.0 7.0 0.00 0.01 0.00 93 1008.2
20260831080004 69 106 1.0 7.0 0.00 0.01 0.00 94 1008.3
20260831075810 69 102 0.0 5.0 0.00 0.01 0.00 94 1008.3
20260831075004 69 118 1.0 5.0 0.00 0.01 0.00 93 1008.5
20260831074310 69 103 1.0 5.0 0.00 0.01 0.00 93 1008.5
20260831074003 69 131 1.0 2.0 0.00 0.01 0.00 93 1008.5
20260831073003 68 113 0.0 3.0 0.00 0.01 0.00 93 1008.6
20260831072808 68 112 0.0 0.0 0.00 0.01 0.00 93 1008.7
20260831071309 68 138 0.0 0.0 0.00 0.01 0.00 93 1008.7
20260831071004 69 138 0.0 2.0 0.00 0.01 0.00 93 1008.8
20260831070003 69 140 0.0 3.0 0.00 0.01 0.00 93 1009.0
20260831065810 69 143 0.0 1.0 0.00 0.01 0.00 93 1009.1
20260831065004 69 108 0.0 5.0 0.00 0.01 0.00 93 1009.1
20260831064310 69 129 0.0 3.0 0.00 0.01 0.00 93 1009.2
20260831064004 69 126 1.0 3.0 0.00 0.01 0.00 93 1009.3
20260831063004 69 138 0.0 3.0 0.00 0.01 0.00 93 1009.4
20260831062808 69 138 0.0 1.0 0.00 0.01 0.00 93 1009.4
20260831062004 69 171 1.0 5.0 0.00 0.01 0.00 93 1009.4
20260831061319 69 153 1.0 3.0 0.00 0.01 0.00 93 1009.4
20260831061004 69 152 1.0 5.0 0.00 0.01 0.00 93 1009.4
20260831060011 69 157 1.0 5.0 0.00 0.01 0.00 93 1009.5
20260831055809 69 103 1.0 5.0 0.00 0.01 0.00 93 1009.6
20260831055004 68 146 0.0 7.0 0.00 0.01 0.00 93 1009.7
20260831054313 68 130 1.0 3.0 0.00 0.01 0.00 93 1010.0
20260831054003 68 136 1.0 3.0 0.00 0.01 0.00 93 1010.0
20260831053011 68 139 0.0 6.0 0.00 0.01 0.00 93 1010.1
20260831052810 68 139 0.0 0.0 0.00 0.01 0.00 93 1010.1
20260831052007 68 129 1.0 6.0 0.00 0.01 0.00 93 1010.1
20260831051310 69 119 1.0 3.0 0.00 0.01 0.00 93 1010.1
20260831050005 68 135 1.0 6.0 0.00 0.01 0.00 93 1010.3
20260831045809 68 149 0.0 2.0 0.00 0.01 0.01 93 1010.4
20260831045007 68 123 0.0 5.0 0.00 0.01 0.01 93 1010.3
20260831044309 68 118 1.0 3.0 0.00 0.01 0.01 93 1010.3
20260831044010 68 135 1.0 5.0 0.00 0.01 0.01 93 1010.2
20260831043006 68 89 1.0 6.0 0.00 0.01 0.01 93 1010.3
20260831042810 68 123 1.0 1.0 0.00 0.01 0.01 93 1010.2
20260831042004 68 107 1.0 5.0 0.00 0.01 0.01 93 1010.2
20260831041310 68 108 1.0 3.0 0.00 0.01 0.01 93 1010.1
20260831041004 68 108 1.0 7.0 0.00 0.01 0.01 93 1010.1
20260831035808 68 123 1.0 7.0 0.00 0.01 0.01 93 1010.2
20260831035004 68 129 1.0 7.0 0.00 0.01 0.01 93 1010.5
20260831034309 68 114 0.0 2.0 0.00 0.01 0.01 93 1010.4
20260831034003 68 103 1.0 7.0 0.00 0.01 0.01 93 1010.3
20260831032808 68 163 0.0 2.0 0.00 0.01 0.01 92 1010.4
20260831032003 68 126 2.0 7.0 0.00 0.01 0.01 92 1010.5
20260831031309 68 131 1.0 3.0 0.00 0.01 0.01 92 1010.6
20260831025809 69 126 1.0 2.0 0.00 0.01 0.01 90 1010.8
20260831025003 69 127 2.0 7.0 0.00 0.01 0.01 90 1010.8
20260831024309 69 113 2.0 7.0 0.00 0.01 0.01 90 1010.8
20260831024003 69 137 1.0 8.0 0.00 0.01 0.01 90 1010.8
20260831023005 69 119 1.0 5.0 0.00 0.01 0.01 90 1010.8
20260831022809 69 115 1.0 3.0 0.00 0.01 0.01 90 1010.8
20260831021309 69 112 2.0 6.0 0.00 0.01 0.01 90 1010.8
20260831021004 69 120 1.0 5.0 0.00 0.01 0.01 90 1010.9
20260831020004 69 107 2.0 6.0 0.00 0.01 0.01 90 1010.8
20260831015809 69 124 1.0 3.0 0.00 0.01 0.01 90 1010.8
20260831015003 69 148 2.0 7.0 0.00 0.01 0.01 90 1010.6
20260831014315 69 101 1.0 2.0 0.00 0.01 0.01 90 1010.7
20260831013004 69 133 2.0 9.0 0.00 0.01 0.01 90 1010.6
20260831012810 69 121 1.0 2.0 0.00 0.01 0.01 90 1010.6